Location: Miles
(41.4492°N, 81.6087°W)
Time: 07:28:55
(UTC+00:00)

Transit 2A - Pass Details

Date: 21 September 2024
Orbit: 590 x 960 km, 66.7° (Epoch: 09 October)

Event Time Altitude Azimuth Distance (km) Brightness Sun altitude
Rises 21:03:43 0° 170° (S) 3,384 9.5 24.9°
Reaches altitude 10° 21:06:32 10° 157° (SSE) 2,512 8.8 24.4°
Maximum altitude 21:11:08 24° 105° (ESE) 1,787 7.6 23.6°
Drops below altitude 10° 21:15:58 10° 54° (NE) 2,664 8.3 22.8°
Sets 21:19:02 0° 42° (NE) 3,637 9.0 22.2°
